When you browse on this site, cookies collect data to enhance your experience and personalize the content and advertising you see.
Visit our Privacy Policy to learn more. By continuing to use the site, you agree to this use of cookies and data.
  • In Lithuania
  • List of Countries
  • For 7 days
  • Water Temperature
  • Satellite Maps
  • Weather Map
  • Weather Widgets
  • user-avatar
    Login

    Hourly Weather Skarzyn

    Today, 24 February, Sunday

    Time Temperature Precipitation Wind Pressure Humidity
    00:00 -3°C° 0 mm 2 mps 764 mmHg 38%
    01:00 -4°C° 0 mm 3 mps 764 mmHg 38%
    02:00 -4°C° 0 mm 3 mps 763 mmHg 38%
    03:00 -4°C° 0 mm 3 mps 763 mmHg 37%
    04:00 -4°C° 0 mm 3 mps 763 mmHg 36%
    05:00 -2°C° 0 mm 3 mps 763 mmHg 36%
    06:00 -2°C° 0 mm 3 mps 762 mmHg 36%
    07:00 -2°C° 0 mm 3 mps 762 mmHg 36%
    08:00 -1°C° 0 mm 3 mps 762 mmHg 38%
    09:00 -1°C° 0 mm 3 mps 762 mmHg 40%
    10:00 0°C° 0 mm 3 mps 762 mmHg 42%
    11:00 +1°C° 0 mm 3 mps 762 mmHg 40%
    12:00 +1°C° 0 mm 4 mps 762 mmHg 38%
    13:00 +3°C° 0 mm 4 mps 761 mmHg 35%
    14:00 +3°C° 0 mm 3 mps 761 mmHg 39%
    15:00 +3°C° 0 mm 3 mps 761 mmHg 43%
    16:00 +4°C° 0 mm 2 mps 761 mmHg 47%
    17:00 +2°C° 0 mm 3 mps 761 mmHg 51%
    18:00 +1°C° 0 mm 3 mps 761 mmHg 55%
    19:00 0°C° 0 mm 3 mps 761 mmHg 59%
    20:00 0°C° 0 mm 3 mps 761 mmHg 60%
    21:00 -1°C° 0 mm 3 mps 761 mmHg 62%
    22:00 -1°C° 0 mm 3 mps 761 mmHg 64%
    23:00 -1°C° 0 mm 3 mps 761 mmHg 65%

    Tomorrow, 25 February, Monday

    Time Temperature Precipitation Wind Pressure Humidity
    00:00 -1°C° 0 mm 3 mps 761 mmHg 66%
    01:00 -1°C° 0 mm 3 mps 761 mmHg 68%
    02:00 -1°C° 0 mm 3 mps 761 mmHg 69%
    03:00 -1°C° 0 mm 3 mps 760 mmHg 71%
    04:00 -1°C° 0 mm 3 mps 760 mmHg 72%
    05:00 -2°C° 0 mm 4 mps 760 mmHg 74%
    06:00 -2°C° 0 mm 4 mps 760 mmHg 76%
    07:00 -2°C° 0 mm 4 mps 760 mmHg 77%
    08:00 -1°C° 0 mm 4 mps 760 mmHg 76%
    09:00 0°C° 0 mm 4 mps 760 mmHg 75%
    10:00 +3°C° 0 mm 4 mps 760 mmHg 73%
    11:00 +4°C° 0 mm 4 mps 760 mmHg 73%
    12:00 +5°C° 0 mm 4 mps 760 mmHg 73%
    13:00 +6°C° 0 mm 4 mps 760 mmHg 72%
    14:00 +6°C° 0 mm 4 mps 759 mmHg 73%
    15:00 +6°C° 0 mm 4 mps 759 mmHg 73%
    16:00 +6°C° 0 mm 4 mps 759 mmHg 74%
    17:00 +5°C° 0 mm 4 mps 759 mmHg 79%
    18:00 +4°C° 0 mm 3 mps 759 mmHg 83%
    19:00 +3°C° 0 mm 3 mps 759 mmHg 88%
    20:00 +2°C° 0 mm 3 mps 759 mmHg 89%
    21:00 +2°C° 0 mm 3 mps 759 mmHg 91%
    22:00 +2°C° 0 mm 3 mps 759 mmHg 92%
    23:00 +1°C° 0 mm 3 mps 758 mmHg 92%

    Day after tomorrow, 26 February, Tuesday

    Time Temperature Precipitation Wind Pressure Humidity
    00:00 +1°C° 0 mm 3 mps 758 mmHg 93%
    01:00 +1°C° 0 mm 3 mps 758 mmHg 94%
    02:00 0°C° 0 mm 4 mps 758 mmHg 95%
    03:00 0°C° 0 mm 4 mps 757 mmHg 95%
    04:00 0°C° 0 mm 4 mps 757 mmHg 96%
    05:00 0°C° 0 mm 5 mps 756 mmHg 96%
    06:00 +1°C° 0 mm 5 mps 756 mmHg 97%
    07:00 +1°C° 0 mm 6 mps 756 mmHg 97%
    08:00 +2°C° 0 mm 6 mps 756 mmHg 94%
    09:00 +2°C° 0 mm 6 mps 755 mmHg 92%
    10:00 +3°C° 0 mm 6 mps 755 mmHg 90%
    11:00 +3°C° 0 mm 6 mps 755 mmHg 86%
    12:00 +4°C° 0 mm 6 mps 755 mmHg 83%
    13:00 +5°C° 0 mm 6 mps 755 mmHg 79%
    14:00 +5°C° 0 mm 6 mps 755 mmHg 76%
    15:00 +6°C° 0 mm 5 mps 755 mmHg 74%
    16:00 +7°C° 0 mm 5 mps 755 mmHg 71%
    17:00 +6°C° 0 mm 4 mps 756 mmHg 76%
    18:00 +5°C° 0 mm 4 mps 756 mmHg 80%
    19:00 +4°C° 0 mm 3 mps 756 mmHg 84%
    20:00 +3°C° 0 mm 3 mps 757 mmHg 86%
    21:00 +2°C° 0 mm 3 mps 757 mmHg 87%
    22:00 +3°C° 0 mm 2 mps 757 mmHg 88%
    23:00 +2°C° 0 mm 2 mps 757 mmHg 88%

    27 February, Wednesday

    Time Temperature Precipitation Wind Pressure Humidity
    00:00 +2°C° 0 mm 2 mps 757 mmHg 88%
    01:00 +2°C° 0 mm 1 mps 757 mmHg 88%
    02:00 +2°C° 0 mm 1 mps 757 mmHg 88%
    03:00 +2°C° 0 mm 1 mps 757 mmHg 88%
    04:00 +1°C° 0 mm 2 mps 756 mmHg 88%
    05:00 +1°C° 0 mm 2 mps 756 mmHg 89%
    06:00 +1°C° 0 mm 2 mps 756 mmHg 90%
    07:00 0°C° 0 mm 3 mps 756 mmHg 91%
    08:00 +2°C° 0 mm 3 mps 755 mmHg 87%
    09:00 +3°C° 0 mm 4 mps 755 mmHg 82%
    10:00 +5°C° 0 mm 4 mps 755 mmHg 78%
    11:00 +6°C° 0 mm 5 mps 754 mmHg 73%
    12:00 +7°C° 0 mm 5 mps 754 mmHg 68%
    13:00 +8°C° 0 mm 6 mps 753 mmHg 63%
    14:00 +8°C° 0 mm 5 mps 753 mmHg 62%
    15:00 +8°C° 0 mm 5 mps 752 mmHg 61%
    16:00 +9°C° 0 mm 5 mps 752 mmHg 61%
    17:00 +8°C° 0 mm 5 mps 751 mmHg 66%
    18:00 +6°C° 0 mm 4 mps 751 mmHg 71%
    19:00 +5°C° 0 mm 4 mps 751 mmHg 76%
    20:00 +5°C° 0 mm 4 mps 750 mmHg 78%
    21:00 +4°C° 0 mm 4 mps 750 mmHg 80%
    22:00 +4°C° 0 mm 3 mps 750 mmHg 82%
    23:00 +4°C° 0 mm 4 mps 749 mmHg 82%

    28 February, Thursday

    Time Temperature Precipitation Wind Pressure Humidity
    00:00 +4°C° 0 mm 4 mps 748 mmHg 83%
    01:00 +4°C° 0 mm 4 mps 748 mmHg 83%
    02:00 +3°C° 0 mm 5 mps 747 mmHg 81%
    03:00 +2°C° 0 mm 5 mps 746 mmHg 79%
    04:00 +2°C° 0 mm 5 mps 745 mmHg 77%
    05:00 +2°C° 0 mm 6 mps 745 mmHg 76%
    06:00 +2°C° 0 mm 6 mps 744 mmHg 76%
    07:00 +2°C° 0 mm 7 mps 743 mmHg 76%
    08:00 +3°C° 0 mm 7 mps 743 mmHg 76%
    09:00 +4°C° 0 mm 8 mps 743 mmHg 76%
    10:00 +5°C° 0 mm 9 mps 743 mmHg 76%
    11:00 +5°C° 0 mm 9 mps 743 mmHg 76%
    12:00 +5°C° 0 mm 9 mps 743 mmHg 77%
    13:00 +5°C° 0 mm 10 mps 743 mmHg 78%
    14:00 +5°C° 0 mm 9 mps 743 mmHg 75%
    15:00 +5°C° 0 mm 9 mps 743 mmHg 73%
    16:00 +5°C° 0 mm 9 mps 743 mmHg 71%
    17:00 +5°C° 0 mm 8 mps 743 mmHg 69%
    18:00 +4°C° 0 mm 7 mps 743 mmHg 68%
    19:00 +4°C° 0 mm 7 mps 744 mmHg 66%
    20:00 +3°C° 0 mm 7 mps 744 mmHg 68%
    21:00 +3°C° 0 mm 7 mps 744 mmHg 70%
    22:00 +2°C° 0 mm 8 mps 744 mmHg 72%
    23:00 +2°C° 0 mm 7 mps 744 mmHg 75%

    1 March, Friday

    Time Temperature Precipitation Wind Pressure Humidity
    00:00 +2°C° 0 mm 7 mps 745 mmHg 78%
    01:00 0°C° 0 mm 7 mps 745 mmHg 81%
    02:00 0°C° 0 mm 7 mps 745 mmHg 82%
    03:00 -1°C° 0 mm 7 mps 745 mmHg 83%
    04:00 -1°C° 0 mm 7 mps 745 mmHg 85%
    05:00 -1°C° 0 mm 7 mps 745 mmHg 85%
    06:00 -1°C° 0 mm 7 mps 745 mmHg 86%
    07:00 -1°C° 0 mm 7 mps 745 mmHg 86%
    08:00 0°C° 0 mm 7 mps 745 mmHg 81%
    09:00 +2°C° 0 mm 7 mps 746 mmHg 76%
    10:00 +3°C° 0 mm 7 mps 746 mmHg 71%
    11:00 +3°C° 0 mm 7 mps 746 mmHg 66%
    12:00 +4°C° 0 mm 8 mps 746 mmHg 60%
    13:00 +5°C° 0 mm 8 mps 746 mmHg 54%
    14:00 +5°C° 0 mm 8 mps 746 mmHg 54%
    15:00 +5°C° 0 mm 8 mps 747 mmHg 54%
    16:00 +4°C° 0 mm 8 mps 747 mmHg 53%
    17:00 +3°C° 0 mm 7 mps 748 mmHg 53%
    18:00 0°C° 0 mm 7 mps 749 mmHg 53%
    19:00 -2°C° 0 mm 7 mps 749 mmHg 53%
    20:00 -2°C° 0 mm 6 mps 750 mmHg 55%
    21:00 -3°C° 0 mm 6 mps 751 mmHg 58%
    22:00 -4°C° 0 mm 6 mps 752 mmHg 60%
    23:00 -4°C° 0 mm 5 mps 752 mmHg 61%
    Show more